Showing default

M1, 43779

Orbit data source: Space-Track

M1, 43779 is a payload satellite owned by RAAF (AU) in SSO that was launched on Mon, 03 Dec 2018 UTC via an FALCON 9 launch vehicle from the Air Force Western Test Range (AFWTR). Payload-class satellites include a variety of spacecraft equipped with specific instruments for various scientific and technological missions. These include communications satellites like Starlink; space stations such as the ISS; scientific satellites like the Hubble; Earth observation satellites from companies like Planet Labs, Umbra, and HawkEye 360; GPS; miniature CubeSats for education and research; and military/defense satellites.

Loading next visibility...
Identifier
43779, 2018-099X
Orbit
SSO
Last TLE update
15 hours ago
Origin
Manufacturer
U. NSW
Mission
Non-operational Defense Imaging
Bus & Motor
CUBESAT 3U, Unknown motor
Mass
5 kg wet, 5 kg dry
Launch date (UTC)
2018-12-03 (7 years ago)
Launch vehicle
FALCON 9
Launch site
Air Force Western Test Range (AFWTR)
Object type
Payload
Rocket body
Debris
Shape & HBR
Box + 1 Pan, 0.3 m
Radar Cross Section
0.035 m², Small (<0.1 m²)

Expand to show TLE details & history

TLE from 15 hours ago
0 M1
1 43779U 18099X   25183.64275409  .00001504  00000-0  10968-3 0  9990
2 43779  97.4887 232.4610 0014760 143.3634 216.8605 15.05116140359510
Epoch: 2025-07-02T15:25Z
TLE epoch observation values (Epoch: 2025-07-02T15:25:33.953Z)
Latitude
-0.00002°
Longitude
80.14861°
Altitude
562.407 km
Speed
7.576 km/s
True Right ascension
15h 29m 50s
True Declination
0° 00' 00"
Sunlit
Object was in full shadow at epoch
Visualization orbit readout
Latitude
52.94473°
Longitude
70.76812°
Altitude
559.415 km
Speed
7.587 km/s
Apparent Right ascension
09h 35m 31s
Apparent Declination
22° 43' 44"
Sunlit
Object is in daylight
Visualization observer readout
Local Sidereal Time
17:46:59
Azimuth
308.56° NW
Elevation
-7.817°
Doppler factor
1
Orbital elements
Apogee altitude
558.362 km
Perigee altitude
537.915 km
Semi-major axis
6,926.275 km
Eccentricity
0.00148
Inclination
97.4887°
RAAN
232.461°
Arg. of periapsis
143.3634°
True anomaly
Unknown
Mean anomaly
216.8605°
Eccentric anomaly
Unknown
Mean motion
3.76525 °/min
Orbital period
95.61 mins
BSTAR
0.00010968
Loading maneuver chart data...
Loading SW <> Apogee altitude chart data...
Loading historical data...
Loading historical data...
Loading historical data...
Loading historical data...
Loading historical data...
Loading historical data...
Loading historical data...

M1 Visibility forecast

Observer location: undefined°, undefined°

Span
Click to sort rows by Start time (UTC) header in descending order
Start Az.
Max El. time (UTC)
Max El. Az.
Max El.
End time (UTC)
End Az.
7 mins2025-07-03 15:55:22.927Z20.563° NNE2025-07-03 15:58:22.927Z68.34° E39.868°2025-07-03 16:02:22.927Z181.071° SSW
4 mins2025-07-04 02:41:22.927Z110.878° ESE2025-07-04 02:43:22.927Z58.243° ENE25.97°2025-07-04 02:45:22.927Z18.981° NNE
4 mins2025-07-04 04:16:22.927Z240.439° WSW2025-07-04 04:17:22.927Z259.015° W17.371°2025-07-04 04:20:22.927Z309.873° NW
|